Home   Weather   Bahawalpur   Past weeks
Flag for Pakistan

Past Weather in Bahawalpur, Pakistan — Yesterday and Last 2 Weeks

Now
100 °F

Haze.


Feels Like: 114 °F
Forecast: 102 / 85 °F
Wind: No wind

Location: Multan Airport

Current Time: Jul 19, 2019 at 5:31:32 pm

Latest Report: Jul 19, 2019 at 5:00 pm


Visibility: 3 mi

Pressure: 29.47 "Hg

Humidity: 45%

Dew Point: 75 °F

Location of BahawalpurLocation

Past Weather in Bahawalpur — Graph

°F

Bahawalpur Temperature Yesterday

Maximum temperature yesterday: 100 °F (at 1:30 pm)
Minimum temperature yesterday: 82 °F (at 10:00 pm)
Average temperature yesterday: 90 °F

High & Low Weather Summary for the Past Weeks

 TemperatureHumidityPressure
High108 °F (Jul 4, 4:00 pm)89% (Jul 19, 4:55 am)29.56 "Hg (Jul 19, 4:55 am)
Low81 °F (Jul 19, 3:00 am)30% (Jul 4, 5:30 pm)29.27 "Hg (Jul 5, 4:30 pm)
Average94 °F59%29.38 "Hg
* Reported Jul 4 4:00 pm — Jul 19 4:00 pm, Bahawalpur. Weather by CustomWeather, © 2019

Note: Actual official high and low records may vary slightly from our data, if they occured in-between our weather recording intervals... More about our weather records

Advertising

Bahawalpur Weather History for the Previous 24 Hours

Scroll right to see more
 ConditionsComfort  
Time TempWeatherWind HumidityBarometerVisibility
4:00 pm
Fri, Jul 19
99 °FScattered clouds.No wind42%29.47 "Hg3 mi
3:30 pm100 °FScattered clouds.No wind40%29.50 "Hg4 mi
3:00 pm100 °FScattered clouds.7 mph40%29.50 "Hg4 mi
2:30 pm99 °FPassing clouds.7 mph44%29.50 "Hg4 mi
2:00 pm99 °FHaze.7 mph44%29.53 "Hg4 mi
1:30 pm97 °FHaze.7 mph47%29.56 "Hg4 mi
1:00 pm97 °FPassing clouds.7 mph47%29.56 "Hg4 mi
12:00 pm97 °FHaze.No wind44%29.56 "Hg4 mi
11:30 am97 °FPassing clouds.5 mph44%29.56 "Hg4 mi
11:00 am97 °FHaze.No wind44%29.56 "Hg4 mi
10:30 am95 °FPassing clouds.No wind47%29.56 "Hg4 mi
10:00 am91 °FPassing clouds.5 mph52%29.56 "Hg4 mi
9:30 am90 °FScattered clouds.No wind55%29.56 "Hg4 mi
9:00 am90 °FScattered clouds.No wind63%29.56 "Hg4 mi
8:30 am90 °FScattered clouds.No wind63%29.56 "Hg5 mi
8:00 am86 °FPassing clouds.No wind70%29.56 "HgN/A
7:30 am82 °FPassing clouds.No wind79%29.56 "HgN/A
7:00 am82 °FPassing clouds.No wind79%29.56 "HgN/A
6:30 am81 °FScattered clouds.No wind84%29.53 "Hg10 mi
6:00 am81 °FScattered clouds.No wind84%29.53 "Hg5 mi
5:30 am81 °FScattered clouds.7 mph89%29.53 "Hg3 mi
4:55 am81 °FPassing clouds.No wind89%29.53 "Hg2 mi
4:30 am81 °FPassing clouds.No wind84%29.53 "Hg2 mi
4:00 am81 °FPassing clouds.5 mph84%29.53 "Hg2 mi
3:30 am81 °FPassing clouds.7 mph79%29.50 "Hg2 mi
3:00 am81 °FPassing clouds.7 mph79%29.50 "Hg2 mi
2:30 am82 °FPassing clouds.7 mph74%29.50 "Hg2 mi
2:00 am82 °FPassing clouds.No wind74%29.50 "Hg2 mi
1:30 am82 °FPassing clouds.No wind74%29.53 "Hg2 mi
1:00 am82 °FPassing clouds.No wind74%29.53 "Hg2 mi
12:30 am82 °FPassing clouds.No wind74%29.53 "Hg2 mi
12:00 am82 °FPassing clouds.No wind74%29.50 "Hg2 mi
11:30 pm
Thu, Jul 18
82 °FPassing clouds.No wind74%29.50 "Hg2 mi
11:00 pm82 °FPassing clouds.No wind74%29.50 "Hg2 mi
10:30 pm82 °FPassing clouds.7 mph79%29.53 "Hg2 mi
10:00 pm82 °FPassing clouds.9 mph79%29.53 "Hg2 mi
9:30 pm84 °FPassing clouds.7 mph74%29.50 "Hg2 mi
8:30 pm84 °FPassing clouds.7 mph79%29.47 "Hg2 mi
8:00 pm84 °FPassing clouds.7 mph79%29.47 "Hg2 mi
7:30 pm88 °FPartly cloudy.5 mph66%29.47 "Hg2 mi
7:00 pm90 °FBroken clouds.5 mph59%29.45 "Hg2 mi
6:30 pm90 °FBroken clouds.5 mph55%29.45 "Hg2 mi
6:00 pm90 °FBroken clouds.No wind55%29.45 "Hg2 mi
5:30 pm86 °FBroken clouds.7 mph66%29.45 "Hg2 mi
5:00 pm86 °FBroken clouds.9 mph66%29.45 "Hg2 mi
Weather by CustomWeather, © 2019

See weather overview